Location: *
(43.0409°N, 0.1694°E)
Time: 23:12:47
(UTC+00:00)

SL-08 R/B - Pass Details

Date: 03 October 2023
Orbit: 670 x 736 km, 98.5° (Epoch: 05 December)

Event Time Altitude Azimuth Distance (km) Brightness Sun altitude
Rises 05:09:59 0° 164° (SSE) 3,070 6.8 -9.7°
Reaches altitude 10° 05:12:12 10° 165° (SSE) 2,167 6.0 -9.3°
Maximum altitude 05:16:58 89° 78° (ENE) 721 3.4 -8.4°
Drops below altitude 10° 05:21:52 10° 347° (NNW) 2,224 5.8 -7.5°
Sets 05:24:10 0° 347° (NNW) 3,158 6.6 -7.1°
